Find Starlink 4101

NORAD ID: 53142 Int'l Des: 2022-083 Owner: SPXS Country: US Constellation: starlink operational
LEOCIRCULAR

リアルタイム位置

3D地球を読み込み中...

Starlink 4101について

説明を読み込み中...

次回通過

Passes for default location (London). Set your location on the main map for personalized predictions.

高度履歴

Loading altitude history...

軌道要素

1 53142U 22083L 26122.17551598 -.00000040 00000-0 15549-4 0 9997
2 53142 53.2174 293.9875 0001260 90.5177 269.5959 15.08838031209306
Epoch: May 2, 2026 • Age: 18 hours

現在のステータス

高度 539.6 km
速度 7.59 km/s
衛星直下点 12.44°N, 96.08°W
打ち上げ日 Jul 17, 2022
運用期間 3.7 years
タイプ internet

技術仕様

分類 Payload
質量 297.00 kg
乾燥質量 275.00 kg
総質量 297.00 kg
長さ 0.20 m
直径 2.80 m
スパン 9.00 m
形状 Box + pan
製造者 SPXS
バスタイプ Starlink
フェーズステータス In Orbit
所有者/国 SPXS/US

Most Searched